DELTA 1 DEB, 2706

Orbit data source: Space-Track

DELTA 1 DEB, 2706 is space debris in SSO originally from a launch on Thu, 26 Jan 1967 UTC launched from the Air Force Western Test Range (AFWTR). Debris objects in space refer to the collection of defunct objects orbiting the Earth. Examples of debris include non-operational satellites, rocket bodies, and fragments generated from explosions, collisions, or faulty payload assembly.

Loading next visibility...
Identifier
2706, 1967-006C
Orbit
SSO
Country
Flag of USUS
Related business
Manufacturer
Unknown
Mission
Spacecraft
Bus & Motor
Unknown
Mass
Unknown
Launch date (UTC)
1967-01-26 (59 years ago)
Launch vehicle
Unknown
Launch site
Air Force Western Test Range (AFWTR)
Object type
Payload
Rocket body
Debris
Shape & HBR
Unknown
Radar Cross Section
Small (<0.1 m²)

Expand to show TLE details & history
Last TLE update: 1 day ago

TLE from 1 day ago
0 DELTA 1 DEB
1 02706U 67006C   25260.02233796 -.00000029  00000-0  11200-3 0  9990
2 02706 102.2127 283.8495 0035264 221.0622 211.7220 12.60923380698121
Epoch: 2025-09-17T00:32Z
TLE epoch observation values (Epoch: 2025-09-17T00:32:09.999Z)
Latitude
68.90673°
Longitude
-114.33858°
Altitude
1,454.296 km
Speed
7.131 km/s
True Right ascension
16h 39m 37s
True Declination
68° 48' 05"
Sunlit
Object was in daylight at epoch
Visualization orbit readout
Latitude
Unknown
Longitude
Unknown
Altitude
Unknown
Speed
Unknown
Apparent Right ascension
Unknown
Apparent Declination
Unknown
Sunlit
N/A
Visualization observer readout
Local Sidereal Time
01:22:00
Azimuth
Unknown
Elevation
Unknown
Doppler factor
Unknown
Orbital elements
Apogee altitude
1,444.183 km
Perigee altitude
1,389.208 km
Semi-major axis
7,794.833 km
Eccentricity
0.00353
Inclination
102.2127°
RAAN
283.8495°
Arg. of periapsis
221.0622°
True anomaly
211.51032°
Mean anomaly
211.722°
Eccentric anomaly
211.61608°
Mean motion
3.15379 °/min
Orbital period
114.15 mins
BSTAR
0.000112
Loading maneuver chart data...
Computing Atmospheric mass density...
Loading historical data...
Loading historical data...
Loading historical data...
Loading historical data...
Loading historical data...
Loading historical data...
Loading historical data...
Other satellites on launch #6 in the year 1967 (1967-01-26 UTC)

Documentation

Showing up to 5 results
|